Dewpoint
64 64 64 65 65 66 66 66 65 66 66 65 65 65 65 66 63 62 63 64 65 64 63 64 65 65 65 65 64 64 64 65 66 66 66 65 65 65 65 65 64 64 65 65 65 64 63 62 61 61 62 61 60 60 60 59 59 59 59 59 59 59 59 58 57 56 56 57 57 57 58 60 60 62 62 63 64 66 69 69 70 71 71 71 71
65 64 64 65 64 65 66 65 65 65 64 65 65 65 64 64 64 64 63 62 64 63 63 64 65 65 64 64 64 65 65 65 66 66 65 66 65 66 65 65 64 64 64 63 64 64 62 61 61 61 61 60 60 59 59 59 58 57 57 58 58 58 58 57 57 57 55 56 56 57 57 59 59 61 62 62 63 65 68 70 70 70 70 70 70
65 65 64 65 65 64 65 65 64 65 64 65 64 64 64 63 64 64 64 63 64 64 63 64 64 64 64 64 64 64 65 65 65 65 65 65 65 65 66 65 65 64 64 63 62 63 62 62 61 61 62 59 59 59 59 58 58 57 57 58 58 58 58 58 58 56 56 55 56 56 57 58 59 60 61 63 64 65 65 67 69 70 70 71 70
65 65 65 64 65 65 65 65 65 65 64 65 64 63 63 62 63 63 62 61 61 64 65 64 64 64 64 64 64 64 64 65 66 66 65 64 64 64 64 64 65 65 64 63 62 62 61 60 60 60 61 58 58 58 58 58 57 57 57 57 58 58 58 58 58 57 57 56 56 56 57 58 59 61 62 63 63 64 64 64 66 69 70 71 71
65 65 65 65 65 65 65 66 64 64 63 63 62 61 60 59 61 62 62 62 62 62 63 64 63 63 63 63 63 63 64 65 66 65 65 65 65 65 64 64 64 63 64 63 65 62 61 60 59 60 59 57 58 57 58 57 58 58 57 57 58 58 58 58 58 58 57 56 56 56 57 57 58 59 61 62 63 63 64 65 65 67 69 71 71
64 64 64 64 65 64 65 64 63 63 63 62 62 60 60 61 59 59 61 60 61 61 60 62 63 62 64 64 64 64 64 66 65 65 64 65 65 65 65 64 64 63 63 63 62 61 61 60 59 59 58 57 57 57 57 57 57 57 57 57 58 58 58 58 58 58 57 56 56 56 57 57 57 58 60 62 62 63 63 64 65 67 68 69 70
64 65 64 63 64 63 64 63 63 63 63 62 62 61 60 57 56 61 61 60 60 59 60 60 60 62 63 63 63 63 65 66 65 64 65 65 65 64 63 63 63 63 62 62 62 60 60 59 60 59 58 58 57 57 57 57 57 57 58 58 58 58 58 58 58 57 57 56 56 56 57 58 59 59 60 61 63 64 64 64 64 65 68 68 68
64 65 64 65 64 63 63 64 63 63 63 64 63 62 61 62 62 63 63 60 60 60 61 61 61 62 61 61 61 62 61 66 65 65 64 64 64 63 63 63 64 63 62 62 62 60 59 59 59 58 58 58 58 57 58 57 57 57 57 57 58 58 58 58 58 57 56 56 55 55 56 57 58 59 60 61 62 63 64 64 63 64 65 68 69
65 65 64 65 64 63 63 63 64 64 64 64 63 63 62 62 63 62 61 62 63 62 61 61 61 61 62 62 61 62 65 64 63 63 64 65 64 63 63 63 63 62 62 61 61 60 60 60 59 59 61 61 59 58 58 57 57 57 57 57 58 58 59 59 58 57 56 56 55 56 56 57 57 57 57 58 60 60 62 64 64 64 64 65 67
65 65 64 65 65 64 64 64 64 64 63 62 61 62 61 62 62 62 63 63 62 63 63 62 62 62 61 61 63 64 64 64 66 65 65 65 64 64 64 63 63 62 62 62 61 60 59 59 61 64 61 60 59 58 57 56 56 58 58 58 58 58 59 59 58 57 56 55 55 55 55 55 56 56 57 57 58 60 61 62 63 64 65 65 65
63 63 63 64 64 64 64 63 64 63 63 62 63 62 62 63 63 63 63 63 63 63 64 63 61 60 59 60 59 61 64 64 64 62 63 64 64 63 63 63 64 63 63 61 60 60 60 59 59 61 62 62 62 60 59 58 58 57 56 57 57 59 59 58 58 57 57 56 55 55 56 55 55 56 56 57 58 58 59 60 61 63 63 63 63
63 64 64 63 63 63 62 63 63 63 63 62 62 62 63 63 63 63 63 63 64 64 63 63 62 62 61 60 60 63 64 65 61 61 61 61 62 63 63 63 64 63 62 62 61 60 60 59 60 61 61 61 61 61 60 60 59 58 57 57 56 56 56 58 58 57 56 56 55 55 55 55 55 55 55 56 56 58 59 60 61 62 63 62 63
65 64 64 63 64 63 63 63 63 63 63 62 62 63 63 63 63 63 63 64 64 64 64 63 62 62 62 61 62 64 64 64 60 59 59 59 60 61 62 62 62 62 62 62 62 61 60 60 61 61 62 62 62 61 60 60 59 58 58 57 57 56 57 57 56 58 57 57 56 56 55 55 55 55 56 56 57 57 58 59 59 61 62 63 63
63 63 64 65 65 64 63 63 63 62 63 63 63 63 63 62 63 63 63 64 64 64 64 63 62 62 62 61 62 63 63 63 60 58 58 58 59 60 61 61 62 62 62 62 62 61 61 61 61 60 60 61 61 60 60 59 59 60 60 60 60 59 57 56 55 54 56 58 57 56 56 56 56 57 58 58 57 56 57 57 58 59 61 62 64
64 65 65 66 64 64 63 63 63 63 63 63 63 63 63 63 63 64 63 63 63 63 62 61 61 61 62 64 63 63 64 61 59 58 57 56 57 59 59 60 61 61 62 62 62 61 61 61 60 60 60 60 60 60 59 59 59 59 59 60 60 59 58 57 55 54 55 55 55 56 57 58 58 58 58 59 58 57 57 57 58 59 60 62 64
66 66 66 64 64 64 63 63 63 63 63 64 63 63 63 63 63 63 64 63 64 63 63 63 62 61 61 62 62 62 63 60 58 57 56 55 57 59 59 60 60 61 62 62 62 61 61 61 60 60 59 59 58 57 58 59 58 58 59 59 59 58 57 55 54 55 56 56 56 58 58 59 55 57 58 58 58 58 59 59 59 60 60 60 61
66 65 64 64 65 64 63 63 63 63 64 63 63 63 63 63 63 64 64 64 63 63 61 60 61 61 60 60 60 60 61 58 55 55 55 55 57 59 60 61 61 62 62 62 61 61 61 61 60 60 59 59 58 56 56 57 58 58 58 57 57 57 57 57 56 55 55 54 53 53 53 54 54 54 54 54 57 57 58 58 58 60 61 60 61
65 65 65 65 65 65 64 63 63 64 64 63 63 63 63 63 64 65 64 64 63 62 61 59 62 62 61 60 61 60 60 59 55 54 54 55 58 58 58 60 61 61 61 61 61 62 62 64 64 62 60 59 57 54 54 56 56 55 56 56 56 56 57 58 58 58 55 54 54 54 54 54 55 55 55 55 55 55 57 56 57 58 57 58 60
64 64 65 65 66 65 64 64 63 63 63 63 63 63 63 63 63 64 64 64 63 61 61 62 62 61 62 62 62 62 62 59 54 53 53 53 56 59 60 60 61 61 61 61 61 62 62 63 63 61 60 59 56 52 52 52 55 55 55 56 56 57 58 58 57 57 57 56 55 55 55 55 58 59 60 57 57 57 58 58 58 58 57 58 59
65 64 64 65 66 65 65 64 63 63 63 63 64 63 63 63 63 63 64 63 62 60 60 62 62 61 60 62 62 62 63 62 62 55 53 53 55 59 60 60 60 61 60 61 61 60 60 60 61 59 57 55 51 49 49 49 53 54 55 56 57 57 57 57 57 58 57 56 55 56 56 57 58 59 59 60 61 62 59 58 58 58 58 58 59
65 65 66 66 65 65 64 64 63 63 64 64 64 65 63 63 63 63 64 62 62 60 61 61 62 60 61 62 62 62 63 62 61 54 52 53 54 56 60 59 59 58 58 58 57 57 57 57 58 58 52 50 48 48 47 47 49 53 56 57 56 55 52 54 58 56 57 57 57 57 57 58 58 59 60 60 60 60 59 57 58 58 58 58 59
66 66 66 65 65 64 64 65 65 65 65 64 63 63 65 65 65 64 63 63 61 60 60 60 60 59 61 62 61 60 62 63 62 59 56 54 53 53 58 60 59 58 57 57 57 57 57 58 59 58 52 50 48 46 46 48 48 55 57 49 49 51 55 57 58 57 57 57 57 57 56 57 58 58 59 60 59 60 59 57 57 57 58 58 60
66 66 66 65 65 65 64 64 65 65 64 64 63 64 64 63 61 63 63 62 61 60 59 59 58 59 60 60 60 60 60 61 61 61 56 53 51 51 52 54 54 55 56 56 57 57 57 58 58 58 51 47 46 46 47 47 53 54 47 49 50 52 54 56 57 56 56 56 56 55 56 56 57 57 58 59 60 59 59 58 57 57 58 58 61
66 67 66 66 66 64 64 65 65 65 65 64 63 63 63 61 61 61 61 61 59 58 58 58 59 59 58 59 60 60 59 59 61 61 60 54 51 50 50 50 50 54 56 55 55 56 56 57 58 51 47 45 45 47 47 52 54 50 49 50 51 53 56 56 55 55 56 55 55 55 55 56 57 57 58 59 59 60 61 59 58 58 58 58 60
68 68 68 66 65 65 64 64 65 64 64 64 63 63 61 60 60 61 62 60 59 57 58 58 58 58 59 58 58 58 59 60 61 61 59 57 53 51 51 51 51 51 53 54 57 58 55 50 47 47 48 48 49 50 51 53 51 51 51 51 53 55 55 55 55 55 54 54 55 55 55 56 57 58 59 59 60 60 60 64 60 58 58 59 62
65 66 67 67 65 64 63 64 63 62 63 64 62 61 61 62 61 61 61 59 59 58 58 58 59 58 59 59 59 59 60 60 58 56 56 55 55 53 52 51 51 51 51 54 52 51 50 49 50 51 53 56 58 60 58 55 53 54 53 53 54 54 54 54 54 54 54 54 55 55 55 56 57 58 59 59 59 58 59 59 62 62 60 61 62
67 67 67 66 65 64 63 62 62 60 61 64 62 62 61 61 61 61 60 59 58 58 58 59 59 59 59 59 58 58 58 56 53 52 52 52 52 53 53 53 53 52 53 52 51 50 51 53 53 52 53 54 55 57 58 57 56 55 54 54 54 54 54 54 54 54 54 54 54 55 55 56 57 57 57 58 58 58 59 59 58 59 63 65 63
68 67 66 65 63 63 62 66 62 62 63 60 60 61 62 62 61 59 59 58 59 59 58 59 58 58 58 58 58 59 57 53 50 48 48 48 48 50 52 53 51 50 50 50 49 50 51 52 55 56 55 53 53 51 52 54 54 54 54 54 54 54 54 53 52 53 54 54 54 55 55 55 55 56 57 57 57 58 59 58 58 58 58 61 63
67 67 67 66 66 65 64 65 63 61 55 53 51 50 51 55 55 52 51 52 54 55 56 55 54 54 57 55 55 57 55 51 49 46 49 45 45 45 49 51 51 50 51 48 48 49 51 55 53 50 51 51 51 50 49 50 51 52 52 52 53 51 51 51 50 51 53 53 53 54 54 54 54 55 56 56 57 58 59 58 57 57 57 57 56
65 63 63 63 63 63 61 60 62 59 55 53 51 50 49 43 48 53 51 49 47 46 49 52 53 53 49 49 51 50 49 49 44 40 39 39 39 40 40 40 40 44 45 45 46 47 51 51 49 50 50 49 48 49 48 47 48 48 48 50 52 50 50 50 50 51 52 53 53 53 53 53 53 54 55 55 56 57 57 57 57 57 56 56 55
62 60 59 59 60 61 60 60 61 61 58 55 54 52 51 49 42 42 47 47 43 40 41 42 45 49 51 47 48 46 46 42 40 39 39 39 38 38 38 38 39 40 41 45 50 53 49 49 48 48 48 47 47 47 46 46 47 47 46 47 49 48 49 49 49 50 51 52 52 52 53 53 52 53 53 54 55 56 57 58 58 57 55 55 55
61 61 58 58 62 62 60 60 61 61 61 60 56 55 52 50 49 42 41 43 42 40 39 40 40 42 45 49 48 50 46 43 40 39 39 39 39 39 38 38 38 39 40 42 51 48 47 47 46 46 46 45 46 46 45 43 44 44 44 45 46 46 46 46 48 49 50 51 51 51 51 52 52 52 53 53 53 54 55 56 57 57 56 55 55
60 60 62 64 63 65 63 61 61 60 60 61 59 57 55 53 51 50 49 42 40 39 40 39 40 40 40 40 41 43 42 41 40 40 39 40 40 40 40 39 39 41 45 46 46 46 45 45 44 44 43 43 42 43 42 41 40 42 42 43 43 44 44 45 47 48 49 50 50 50 51 51 52 52 52 53 53 53 54 54 55 57 57 56 55
62 62 60 60 62 61 62 62 62 62 61 60 59 59 59 57 54 52 51 51 50 47 43 40 39 42 41 39 40 40 39 40 39 39 40 40 41 41 40 46 41 41 44 46 44 44 44 43 43 42 41 41 40 40 39 38 40 39 41 40 41 42 42 42 42 45 47 48 47 49 50 50 51 51 51 52 52 53 53 53 54 55 55 56 56
62 60 61 65 60 60 59 59 59 59 60 60 61 60 60 60 57 54 53 52 52 51 50 51 45 39 45 45 44 39 37 37 39 39 40 40 42 42 46 49 46 45 45 45 45 43 44 43 42 42 40 39 39 39 38 39 39 40 40 39 39 40 40 40 40 42 43 44 44 45 48 49 49 50 51 51 51 51 52 52 53 54 54 54 56
60 60 60 62 61 61 61 61 60 60 59 58 59 59 61 61 59 57 55 55 55 53 52 51 51 49 41 38 38 39 40 39 39 40 40 40 42 44 47 46 45 45 46 45 45 44 44 44 43 43 43 43 42 41 40 40 41 39 40 39 39 39 39 39 40 41 42 41 42 44 43 45 47 48 50 50 50 50 51 51 52 53 53 53 54
60 61 61 61 61 62 61 61 61 60 61 60 60 59 59 59 59 58 58 58 57 56 53 52 52 52 50 52 50 46 42 40 40 40 41 41 43 47 46 46 45 45 46 45 46 44 44 43 44 43 43 43 42 41 41 40 40 40 41 40 38 37 39 40 39 42 40 40 40 40 41 42 42 44 48 49 50 50 50 51 51 52 53 52 52
61 61 60 61 61 61 60 59 58 60 59 59 58 58 57 56 56 56 55 56 56 55 53 52 52 50 49 49 51 50 51 46 42 46 46 43 45 46 46 46 46 45 44 45 45 44 43 43 42 41 41 41 41 40 39 38 38 37 38 37 36 37 40 41 42 39 41 40 40 40 41 41 40 41 44 46 49 49 49 50 50 50 51 51 51
58 57 58 60 61 59 59 58 57 57 58 57 57 57 56 55 55 54 52 52 51 50 50 49 48 49 48 48 46 48 50 49 48 47 46 45 45 44 43 43 44 44 44 43 44 44 42 41 44 42 43 41 41 40 39 38 37 35 36 36 33 33 35 36 37 37 38 39 40 40 40 40 39 40 41 43 45 47 48 48 49 49 49 49 49
57 57 56 57 58 58 60 59 58 58 59 57 55 55 56 54 53 52 51 50 50 50 49 48 47 47 47 46 46 44 47 46 46 46 45 44 44 43 43 43 42 42 42 43 43 42 43 42 42 42 41 40 40 40 40 36 36 34 34 37 32 31 31 34 35 36 37 38 39 40 39 40 39 39 39 41 42 44 45 46 48 48 48 49 49
58 57 59 57 57 58 59 58 57 56 56 56 55 55 54 53 53 54 50 50 51 51 50 48 46 46 46 44 42 42 46 46 46 47 45 44 43 42 42 42 43 42 42 42 43 45 44 43 42 42 41 40 40 40 36 33 32 31 32 34 31 31 29 32 35 36 37 38 38 39 39 40 39 37 39 40 41 42 43 44 45 45 47 48 49
56 56 57 56 57 58 58 57 56 57 56 56 53 53 54 53 52 51 52 50 52 51 48 47 46 47 43 42 41 41 45 46 46 46 45 44 44 42 43 41 41 41 41 40 40 42 43 44 42 41 41 40 39 37 34 32 30 28 29 31 30 28 28 30 34 35 36 36 37 39 39 41 39 38 40 41 37 39 39 41 42 43 43 45 47
58 57 58 57 56 57 56 56 56 55 55 54 53 54 54 53 52 53 53 54 52 50 47 46 46 46 45 43 44 43 45 45 48 46 44 44 43 43 42 40 40 41 43 42 42 43 43 42 41 40 39 39 38 35 31 29 28 26 27 29 31 28 27 31 32 35 36 36 36 38 39 41 39 36 38 40 37 38 38 39 41 40 41 42 43
57 58 58 58 57 57 57 55 54 54 54 55 54 54 55 53 53 53 51 51 52 48 47 46 46 46 45 43 43 43 44 43 43 43 44 45 43 44 41 39 39 41 42 43 42 44 42 41 41 40 38 37 37 34 31 29 26 25 25 25 30 30 27 29 31 33 35 35 35 37 37 40 40 36 37 40 38 38 38 39 40 40 39 39 41
56 56 56 56 56 55 55 55 54 54 55 54 52 52 54 52 52 50 50 50 51 48 47 48 47 46 45 44 45 45 43 43 44 44 45 44 46 45 43 40 41 41 42 42 43 39 40 39 39 39 37 35 35 33 30 30 28 25 25 25 25 25 25 27 29 33 35 34 34 35 37 39 39 35 35 36 40 39 38 38 38 42 39 38 39
55 56 56 55 55 55 54 54 55 53 53 52 51 51 50 49 49 50 50 48 48 48 48 48 47 46 46 44 44 45 43 42 43 43 45 44 43 43 43 43 42 44 42 42 41 39 40 38 38 38 38 34 32 30 29 30 30 30 28 28 28 28 28 29 31 35 33 32 33 34 36 38 40 37 38 38 38 39 38 38 39 40 39 38 38
55 55 55 55 54 54 53 54 54 52 51 50 51 50 48 48 50 49 51 47 45 46 46 46 44 44 43 44 44 44 45 43 43 43 43 44 42 42 42 42 39 38 38 39 41 40 40 40 39 38 38 34 31 29 28 27 27 27 30 28 30 30 30 31 32 33 31 32 33 33 35 38 40 39 38 38 38 38 39 38 39 40 37 38 37
54 54 54 54 53 52 53 52 52 54 51 51 50 51 50 49 48 47 46 46 46 45 43 45 44 42 44 44 47 44 44 43 44 44 43 43 42 42 40 41 42 39 39 39 37 37 38 39 40 40 38 34 32 29 29 28 28 27 26 27 30 31 32 33 31 30 30 31 32 34 35 37 38 39 37 38 37 37 36 36 38 38 37 37 38
52 52 53 52 52 52 50 50 52 47 47 48 49 50 49 47 47 46 47 46 42 44 43 44 42 41 44 44 44 41 43 46 42 42 42 43 40 39 39 39 40 38 39 38 39 40 37 38 40 39 37 32 30 31 31 32 30 29 28 28 30 32 31 32 31 30 32 32 31 33 35 37 36 36 37 37 38 35 35 35 37 37 35 37 37
51 53 50 53 52 49 52 50 48 47 48 47 46 46 47 48 46 46 45 45 42 43 42 43 42 39 39 42 44 42 41 40 38 41 41 40 40 39 37 41 41 41 40 39 40 40 38 37 39 37 33 31 31 32 32 32 31 29 28 29 32 31 31 31 31 32 31 30 31 33 36 37 35 32 32 33 36 34 33 35 38 37 35 36 36
47 49 50 50 48 48 47 47 46 46 46 46 45 45 46 44 44 44 44 42 42 42 43 39 39 40 41 41 46 44 43 40 42 41 40 39 39 39 38 38 38 38 37 38 35 36 39 40 37 37 33 34 33 33 32 32 31 28 31 32 31 31 31 30 29 29 31 33 32 35 37 35 35 33 33 32 36 33 35 36 37 35 34 35 37